Search for airport 
image banner adimage banner ad
image banner ad

DAUI - In Salah

Located in In Salah, Algeria

ICAO - DAUI, IATA - INZ

Data provided by Airmate  

General information

Coordinates: N27°15'13" E2°30'39"
Elevation is 895 feet MSL.
 
View others Airports in Tamanghasset Province

Operational data

Open for public use
Current time UTC:
Current local time:
Weather
METAR: DAUI 010100Z 04014KT CAVOK 21/M01 Q1018
TAF: TAF DAUI 312300Z 0100/0124 06017KT 8000 NSC PROB40 0108/0113 06020G30KT 4000 DRSA
View NOTAMs / SUP AIP / TFR affecting this airport [VIEW]
Communications frequencies: [VIEW]

Runways:

RWY identifierQFULength (ft)Width (ft)SurfaceLDA (ft)
0551°9843148ASP
23231°9843148

Airport contact information

Address: In Salah Algeria

Satellite view of DAUI